Theta_e
314 313 312 307 303 309 303 304 300 304 308 314 319 320 323 323 328 330 331 339 342 344 344 343 344 346 348 355 360 363 362 364
312 314 312 310 311 302 304 297 297 302 306 307 313 317 320 321 323 328 333 336 341 343 345 345 345 346 350 355 360 363 365 365
311 308 306 307 307 306 306 304 299 299 303 316 317 318 320 322 324 326 331 335 339 342 346 347 346 346 349 352 360 363 365 366
306 313 313 310 308 309 303 302 305 305 305 317 319 321 321 322 325 326 330 336 339 342 345 347 347 346 348 351 354 362 365 366
303 310 311 308 309 309 310 307 305 301 304 319 318 320 322 322 324 328 333 336 338 340 344 346 348 348 348 351 352 357 365 365
301 306 311 307 308 309 308 305 305 306 308 313 315 316 321 324 325 328 332 332 337 339 341 347 349 350 352 351 353 356 360 364
308 310 311 308 307 308 307 309 305 309 310 314 316 318 322 326 328 328 331 334 340 338 339 346 350 352 354 354 355 356 357 360
305 308 309 308 308 308 309 309 310 310 311 319 320 323 324 326 325 328 330 332 336 340 344 347 349 354 354 355 357 358 358 358
299 307 307 304 308 309 310 311 311 308 315 320 319 320 323 326 325 326 325 329 335 338 346 357 350 355 356 355 358 360 358 362
298 304 296 308 315 313 311 312 314 314 317 319 321 324 325 327 325 323 325 327 333 330 334 343 339 341 357 359 360 359 361 361
296 298 304 308 311 311 309 310 315 315 317 319 320 321 323 325 327 328 332 334 334 331 331 342 339 342 352 353 358 361 359 360
298 295 295 306 313 316 315 305 316 316 316 317 318 311 319 332 332 333 336 339 340 340 339 341 343 339 355 350 358 357 359 360
295 294 301 308 311 314 303 308 320 321 320 318 318 325 330 331 332 334 336 337 342 343 342 347 351 350 362 364 356 360 361 364
295 294 293 309 309 305 314 317 316 316 317 319 322 323 324 326 328 331 335 336 340 344 346 350 352 353 354 360 366 376 365 365
297 297 311 308 308 311 311 311 313 313 314 315 315 316 317 319 326 328 332 337 338 345 350 353 352 369 363 364 375 376 375 369
298 302 304 306 309 310 310 310 311 312 312 313 312 313 317 319 323 327 330 334 336 341 347 352 366 366 368 371 371 372 372 370
297 301 304 305 306 308 309 310 310 311 311 311 312 312 317 319 321 324 328 335 337 344 350 355 366 369 367 370 369 366 369 367
295 302 303 305 307 309 308 307 309 309 310 312 313 314 316 318 320 321 324 334 335 347 348 353 360 360 364 368 371 369 365 364
298 303 303 306 309 309 308 309 310 310 311 310 312 313 315 317 319 319 323 331 335 343 349 353 358 354 357 365 370 367 366 362
Wind_Speed
29 25 25 26 28 23 22 20 16 18 21 23 24 22 19 14 22 23 22 24 26 26 24 24 23 23 23 22 22 23 23 18
33 25 29 28 21 22 18 21 20 19 23 19 22 22 22 18 16 19 22 23 24 24 25 23 25 23 23 21 23 23 22 20
29 34 27 22 22 25 20 16 15 15 14 15 25 25 21 22 17 15 20 23 22 23 24 24 23 22 22 21 22 21 21 21
25 27 32 28 28 25 13 21 15 15 5 12 5 22 20 17 21 19 16 23 21 22 23 22 23 23 24 22 21 22 20 19
26 23 32 32 29 28 22 19 19 15 6 5 11 12 18 18 14 18 13 13 21 21 22 22 22 22 22 22 23 19 19 19
19 20 18 29 29 29 28 18 16 17 7 7 7 4 3 11 14 12 14 15 19 20 21 22 21 20 20 22 21 21 20 20
27 24 22 27 26 30 31 20 22 18 18 13 11 10 5 7 12 15 15 13 9 16 20 20 19 20 18 19 20 21 21 21
18 22 20 18 31 30 29 29 23 25 17 17 15 12 9 11 10 10 9 8 7 4 3 4 15 15 19 18 18 18 18 20
16 18 22 19 15 27 25 26 24 20 14 19 20 18 12 10 7 7 4 4 6 5 4 2 5 12 16 17 15 14 16 16
10 12 18 10 11 16 13 25 24 18 15 11 17 17 14 9 5 2 1 3 4 4 7 9 9 10 11 14 14 13 11 13
6 7 7 12 14 18 11 8 5 18 18 10 11 10 12 9 7 6 5 4 5 8 9 6 12 13 11 11 14 14 15 14
9 7 12 9 16 5 12 12 9 4 2 7 7 5 7 13 13 13 12 10 10 11 11 10 14 6 9 15 12 15 15 15
10 7 4 12 17 4 9 7 17 20 13 2 5 10 10 11 11 10 9 10 9 8 8 7 7 9 3 1 9 15 15 14
12 13 11 19 11 8 8 12 15 17 18 16 14 13 13 12 11 11 10 11 12 9 8 8 7 6 9 5 6 4 9 13
9 12 10 14 14 14 11 8 11 11 13 12 12 12 12 11 12 11 12 10 13 14 11 8 10 4 6 6 4 4 6 9
11 16 17 12 12 12 11 10 9 11 11 12 11 14 14 11 11 11 11 12 13 16 17 10 4 6 5 4 5 6 8 8
17 17 15 19 16 16 16 14 13 13 14 13 14 14 12 12 14 14 13 11 14 18 13 13 8 6 6 6 7 8 7 8
17 22 20 19 18 17 17 19 17 15 16 15 13 13 13 11 11 12 15 10 16 16 12 14 5 6 7 10 6 7 7 7
25 25 27 25 25 26 24 18 14 15 15 16 14 13 15 14 12 14 16 11 15 15 12 14 9 5 7 9 8 7 7 7
Wind_Direction
226 211 216 201 216 216 229 223 224 216 224 253 226 245 249 219 187 184 183 170 175 174 178 180 185 187 188 183 187 189 191 196
202 205 220 221 196 215 228 235 228 222 217 213 217 217 221 222 209 194 180 174 174 174 177 181 185 187 189 187 188 190 191 195
224 205 205 210 211 208 229 234 239 252 227 208 199 201 206 207 208 226 189 174 176 175 177 184 185 183 190 192 186 191 195 196
247 209 207 210 217 208 222 213 245 268 282 10 229 176 200 206 201 200 219 171 175 175 176 179 180 186 190 191 196 195 196 199
242 235 191 213 207 222 211 228 222 241 225 70 45 144 182 190 219 181 199 191 173 176 177 181 183 185 189 190 196 198 195 199
229 231 207 193 212 209 226 208 225 217 150 148 113 130 165 159 191 190 185 217 175 180 182 176 185 186 186 191 195 194 196 199
241 237 224 194 208 213 216 214 219 215 208 147 139 147 155 122 177 207 183 200 171 189 177 179 177 182 191 192 190 194 195 199
266 267 273 270 198 213 216 226 204 238 207 130 129 130 146 105 80 63 72 85 85 94 120 136 188 174 186 194 192 194 195 201
254 249 247 243 245 201 217 213 223 216 230 142 142 136 139 127 94 110 93 96 129 149 167 215 168 185 184 192 193 191 199 196
278 275 246 257 224 255 235 216 211 225 219 191 160 135 115 113 108 99 120 343 334 274 236 180 215 214 178 179 187 198 203 200
256 239 228 250 219 215 236 225 260 220 224 100 77 91 105 116 151 176 245 281 308 283 287 249 194 211 178 182 183 189 203 210
299 273 222 247 243 189 208 231 288 284 336 131 118 166 79 42 39 32 27 15 357 346 337 349 348 291 171 185 175 193 204 206
243 264 268 352 358 91 170 58 24 28 14 159 75 64 65 43 34 19 13 351 344 323 311 309 317 327 339 274 210 194 199 196
237 241 236 46 341 35 42 53 35 33 26 29 29 32 25 15 8 5 359 351 338 322 291 306 299 289 288 276 254 216 194 189
244 243 293 346 5 8 27 35 30 26 11 7 359 356 346 340 347 347 349 354 331 320 308 274 274 298 277 260 267 276 199 191
266 276 296 310 326 330 341 348 346 335 343 328 331 330 332 336 336 343 340 340 323 313 292 280 289 239 241 266 277 256 226 195
294 293 286 289 290 299 307 308 307 309 306 304 308 306 317 321 328 329 321 337 317 302 338 325 351 348 353 284 220 247 215 194
301 310 314 306 301 290 268 264 270 277 278 283 290 301 306 305 312 312 308 333 307 305 317 311 316 313 314 312 260 219 213 193
284 287 289 289 289 298 301 285 277 280 277 280 283 295 301 301 297 291 291 303 303 307 301 302 272 298 291 295 268 221 223 203